Showing default

LEMUR-2 JULIA-JOEL, 68476

Orbit data source: Space-Track

LEMUR-2 JULIA-JOEL, 68476 is a payload satellite owned by Spire (LU) in SSO that was launched on Mon, 30 Mar 2026 UTC via an FALCON 9 launch vehicle from the Air Force Western Test Range (AFWTR). Payload-class satellites include a variety of spacecraft equipped with specific instruments for various scientific and technological missions. These include communications satellites like Starlink; space stations such as the ISS; scientific satellites like the Hubble; Earth observation satellites from companies like Planet Labs, Umbra, and HawkEye 360; GPS; miniature CubeSats for education and research; and military/defense satellites.

Loading next visibility...
Identifier
68476, 2026-067BN
Orbit
SSO
Country
Flag of LULU / LUXE
Related business
Manufacturer
Spire/Glasgow
Mission
Operational spacecraft
Bus & Motor
CUBESAT 3U, Unknown motor
Mass
7.6 kg wet, 7.6 kg dry
Launch date (UTC)
2026-03-30 (2 months ago)
Launch vehicle
FALCON 9
Launch site
Air Force Western Test Range (AFWTR)
Object type
Payload
Rocket body
Debris
Shape & HBR
Unknown shape, 1.1 m
Radar Cross Section
Medium (>0.1 m² and <1 m²)

Expand to show TLE details & history
Last TLE update: 3 days ago

TLE from 3 days ago
0 LEMUR-2 JULIA-JOEL
1 68476U 26067BN  26154.46989715  .00004050  00000-0  39861-3 0  9998
2 68476  97.7559 112.9768 0001482   1.7080 358.4144 14.92632898  9684
Epoch: 2026-06-03T11:16Z
TLE epoch observation values (Epoch: 2026-06-03T11:16:39.113Z)
Latitude
-0.00005°
Longitude
51.88578°
Altitude
591.74 km
Speed
7.565 km/s
True Right ascension
07h 31m 54s
True Declination
0° 00' 00"
Sunlit
Object was in daylight at epoch
Visualization orbit readout
Latitude
Unknown
Longitude
Unknown
Altitude
Unknown
Speed
Unknown
Apparent Right ascension
Unknown
Apparent Declination
Unknown
Sunlit
N/A
Visualization observer readout
Local Sidereal Time
02:31:32
Azimuth
Unknown
Elevation
Unknown
Doppler factor
Unknown
Orbital elements
Apogee altitude
587.779 km
Perigee altitude
585.715 km
Semi-major axis
6,964.884 km
Eccentricity
0.00015
Inclination
97.7559°
RAAN
112.9768°
Arg. of periapsis
1.708°
True anomaly
358.41393°
Mean anomaly
358.4144°
Eccentric anomaly
358.41417°
Mean motion
3.73398 °/min
Orbital period
96.41 mins
BSTAR
0.00039861
Loading maneuver chart data...
Computing Atmospheric mass density...
Loading historical data...
Loading historical data...
Loading historical data...
Loading historical data...
Loading historical data...
Loading historical data...
Loading historical data...

Documentation

Showing up to 5 results
|